#timestamp,LO_Frequency,Hit,StdDev 
1459695615.1,286047002.0,N
1459695635.8,286047000.3,N
1459695655.7,286047002.0,N
1459695675.5,286047001.9,N
1459695695.3,286047000.6,N
1459695715.2,286047002.4,N
1459695735.9,286047002.5,N
1459695755.7,286047002.6,N
1459695775.6,286047004.3,Y
1459695795.4,286047001.3,P
1459695815.2,286047004.0,P
1459695835.1,286047004.2,N
1459695836.0,286047004.2,N
1459695855.8,286047003.0,N
1459695875.6,286047007.4,Y
1459695895.5,286047004.2,P
1459695915.3,286047003.9,P
1459695935.1,286047003.4,P
1459695955.9,286047003.3,Y
1459695975.7,286047001.0,P
1459695995.5,286046999.8,N
1459696015.4,286047003.9,N
1459696035.2,286047003.2,N
1459696055.0,286047003.7,N
1459696055.9,286047003.7,N
1459696075.8,286047003.6,N
1459696095.6,286047005.3,Y
1459696115.4,286047004.1,P
1459696135.3,286047003.3,P
1459696155.1,286047005.6,P
1459696156.0,286047005.6,Y
1459696175.8,286047000.9,P
1459696195.7,286047000.0,N
1459696215.5,286046998.5,N
1459696235.3,286047000.5,N
1459696255.1,286047001.3,N
1459696275.9,286047004.2,N
1459696295.7,286047003.9,N
1459696315.5,286047001.7,N
1459696335.4,286047003.1,N
1459696355.2,286047006.0,Y
1459696375.0,286047001.4,P
1459696375.9,286047001.4,P
1459696395.8,286047004.4,P
1459696415.6,286047006.0,Y
1459696435.4,286047003.9,P
1459696455.3,286047004.3,P
1459696475.1,286047005.9,P
1459696495.8,286047005.5,Y
1459696515.7,286047000.4,P
1459696535.5,286047000.4,N
1459696555.3,286047000.5,N
1459696575.2,286047000.7,N
1459696595.0,286046998.7,N
1459696595.9,286046998.7,N
1459696615.7,286047000.7,N
1459696635.6,286046999.8,N
1459696655.4,286046999.7,N
1459696675.2,286047000.1,N
1459696695.1,286047002.5,N
1459696696.0,286047002.5,N
1459696715.8,286047001.3,N
1459696735.6,286047001.5,N
1459696755.5,286047002.8,N
1459696775.3,286047000.2,N
1459696795.1,286047002.8,N
1459696815.8,286047002.3,N
1459696835.7,286047002.2,N
1459696855.5,286047002.3,N
1459696875.3,286047001.6,N
1459696895.2,286047004.0,N
1459696915.9,286047005.6,Y
1459696935.7,286047002.1,P
1459696955.6,286047002.3,P
1459696975.4,286047001.7,P
1459696995.2,286047002.0,Y
1459697015.1,286047002.8,P
1459697016.0,286047002.8,P
1459697035.8,286047002.6,P
1459697055.6,286047001.9,Y
1459697075.5,286046998.2,P
1459697095.3,286046998.7,N
1459697115.1,286046996.5,N
1459697135.9,286046997.6,N
1459697155.7,286046997.8,N
1459697175.5,286046994.9,N
1459697195.4,286046997.8,N
1459697215.2,286046999.3,N
1459697235.0,286046999.6,N
1459697235.9,286046999.6,N
1459697255.8,286046996.7,N
1459697275.6,286046995.1,N
1459697295.4,286046997.7,N
1459697315.3,286046994.9,N
1459697335.1,286046994.9,N
1459697336.0,286046994.9,N
1459697355.8,286046995.5,N
1459697375.6,286046996.7,N
1459697395.5,286046997.7,N
1459697415.3,286046999.1,N
1459697435.1,286046997.4,N
1459697455.9,286046996.8,N
1459697475.7,286046997.8,N
1459697495.5,286046995.1,N
1459697515.4,286046997.3,N
1459697535.2,286046997.1,N
1459697555.0,286046997.3,N
1459697555.9,286046997.3,N
1459697575.8,286046997.4,N
1459697595.6,286046997.9,N
1459697615.4,286046998.8,N
1459697635.3,286047000.7,N
1459697655.1,286046998.5,N
1459697656.0,286046998.5,N
1459697675.8,286047000.6,N
1459697695.7,286046998.3,N
1459697715.5,286047001.2,N
1459697735.3,286047002.6,N
1459697755.1,286047000.5,N
1459697775.9,286047002.1,N
1459697795.7,286046999.7,N
1459697815.5,286047000.8,N
1459697835.4,286047002.3,N
1459697855.2,286047001.8,N
1459697875.0,286047000.2,N
1459697875.9,286047000.2,N
1459697895.8,286046999.7,N
1459697915.6,286047002.0,N
1459697935.4,286047001.7,N
1459697955.3,286047002.3,N
1459697975.1,286047003.1,N
1459697976.0,286047003.1,N
1459697995.8,286047004.8,N
1459698015.7,286047003.3,N
1459698035.5,286047001.9,N
1459698055.3,286047004.1,N
1459698075.2,286047001.7,N
1459698095.9,286047001.0,N
1459698115.7,286047001.2,N
1459698135.5,286046998.3,N
1459698155.4,286047000.9,N
1459698175.2,286047002.3,N
1459698195.0,286047000.5,N
1459698195.9,286047000.5,N
1459698215.8,286047000.2,N
1459698235.6,286047000.2,N
1459698255.4,286047000.0,N
1459698275.3,286046999.7,N
1459698295.1,286047001.0,N
1459698296.0,286047001.0,N
1459698315.8,286047000.6,N
1459698335.7,286047000.3,N
1459698355.5,286047002.1,N
1459698375.3,286047002.4,N
1459698395.2,286047002.5,N
1459698415.9,286047002.2,N
1459698435.7,286047002.0,N
1459698455.6,286047000.6,N
1459698475.4,286047002.7,N
1459698495.2,286047000.3,N
1459698515.0,286046998.1,N
1459698516.0,286046998.1,N
1459698535.8,286046998.4,N
1459698555.6,286047000.0,N
1459698575.4,286047000.3,N
1459698595.3,286046999.7,N
1459698615.1,286047004.4,Y
1459698635.8,286047002.7,P
1459698655.7,286047002.4,N
1459698675.5,286047000.7,N
1459698695.3,286046998.9,N
1459698715.2,286046998.3,N
1459698735.9,286046999.9,N
1459698755.7,286046999.9,N
1459698775.6,286047000.8,N
1459698795.4,286047002.1,N
1459698815.2,286047000.0,N
1459698835.1,286047001.5,N
1459698836.0,286047001.5,N
1459698855.8,286047001.7,N
1459698875.6,286047002.1,N
1459698895.5,286047001.9,N
1459698915.3,286047003.9,Y
1459698935.1,286047002.4,P
1459698955.9,286047001.5,N
1459698975.7,286047002.4,P
1459698995.5,286047000.5,N
1459699015.3,286047000.9,N
1459699035.2,286046999.9,N
1459699055.0,286046998.7,N
1459699055.9,286046998.7,N
1459699075.7,286047000.7,N
1459699095.6,286047002.6,N
1459699115.4,286047002.7,N
1459699135.2,286047000.5,N
1459699155.1,286047002.8,N
1459699156.0,286047002.8,N
1459699175.8,286047000.0,N
1459699195.6,286047002.6,N
